Time,TemperatureF,DewpointF,PressureIn,WindDirection,WindDirectionDegrees,WindSpeedMPH,WindSpeedGustMPH,Humidity,HourlyPrecipIn,Conditions,Clouds,dailyrainin,SolarRadiationWatts/m^2,SoftwareType,DateUTC
2013-08-21 00:01:00,65.0,29.0,-100.00,NW,315,7.0,10.0,26,0.00,,,0.00,0.000000,,2013-08-21 07:01:00,
2013-08-21 00:11:00,65.0,29.0,-100.00,NW,315,7.0,10.0,26,0.00,,,0.00,0.000000,,2013-08-21 07:11:00,
2013-08-21 00:42:00,63.0,26.0,-100.00,NW,311,6.0,9.0,24,0.00,,,0.00,0.000000,,2013-08-21 07:42:00,
2013-08-21 00:53:00,63.0,26.0,-100.00,NW,311,6.0,9.0,24,0.00,,,0.00,0.000000,,2013-08-21 07:53:00,
2013-08-21 01:03:00,63.0,26.0,-100.00,NW,311,6.0,9.0,24,0.00,,,0.00,0.000000,,2013-08-21 08:03:00,
2013-08-21 01:12:00,63.0,26.0,-100.00,NW,311,6.0,9.0,24,0.00,,,0.00,0.000000,,2013-08-21 08:12:00,
2013-08-21 01:43:00,59.0,24.0,-100.00,West,268,5.0,7.0,26,0.00,,,0.00,0.000000,,2013-08-21 08:43:00,
2013-08-21 01:52:00,59.0,24.0,-100.00,West,268,5.0,7.0,26,0.00,,,0.00,0.000000,,2013-08-21 08:52:00,
2013-08-21 02:01:00,59.0,24.0,-100.00,West,268,5.0,7.0,26,0.00,,,0.00,0.000000,,2013-08-21 09:01:00,
2013-08-21 02:11:00,59.0,24.0,-100.00,West,268,5.0,7.0,26,0.00,,,0.00,0.000000,,2013-08-21 09:11:00,
2013-08-21 02:43:00,56.0,25.0,-100.00,WSW,248,5.0,6.0,30,0.00,,,0.00,0.000000,,2013-08-21 09:43:00,
2013-08-21 02:53:00,56.0,25.0,-100.00,WSW,248,5.0,6.0,30,0.00,,,0.00,0.000000,,2013-08-21 09:53:00,
2013-08-21 03:03:00,56.0,25.0,-100.00,WSW,248,5.0,6.0,30,0.00,,,0.00,0.000000,,2013-08-21 10:03:00,
2013-08-21 03:12:00,56.0,25.0,-100.00,WSW,248,5.0,6.0,30,0.00,,,0.00,0.000000,,2013-08-21 10:12:00,
2013-08-21 03:43:00,54.0,26.0,-100.00,West,266,5.0,7.0,34,0.00,,,0.00,0.000000,,2013-08-21 10:43:00,
2013-08-21 03:52:00,54.0,26.0,-100.00,West,266,5.0,7.0,34,0.00,,,0.00,0.000000,,2013-08-21 10:52:00,
2013-08-21 04:03:00,54.0,26.0,-100.00,West,266,5.0,7.0,34,0.00,,,0.00,0.000000,,2013-08-21 11:03:00,
2013-08-21 04:11:00,54.0,26.0,-100.00,West,266,5.0,7.0,34,0.00,,,0.00,0.000000,,2013-08-21 11:11:00,
2013-08-21 04:42:00,54.0,28.0,-100.00,WSW,255,4.0,7.0,36,0.00,,,-99.99,0.000000,,2013-08-21 11:42:00,
2013-08-21 04:52:00,54.0,28.0,-100.00,WSW,255,4.0,7.0,36,0.00,,,-99.99,0.000000,,2013-08-21 11:52:00,
2013-08-21 05:01:00,54.0,28.0,-100.00,WSW,255,4.0,7.0,36,0.00,,,-99.99,0.000000,,2013-08-21 12:01:00,
2013-08-21 05:12:00,54.0,28.0,-100.00,WSW,255,4.0,7.0,36,0.00,,,-99.99,0.000000,,2013-08-21 12:12:00,
2013-08-21 05:42:00,55.0,29.0,-100.00,SW,234,4.0,6.0,37,0.00,,,0.00,0.000000,,2013-08-21 12:42:00,
2013-08-21 05:52:00,55.0,29.0,-100.00,SW,234,4.0,6.0,37,0.00,,,0.00,0.000000,,2013-08-21 12:52:00,
2013-08-21 06:02:00,55.0,29.0,-100.00,SW,234,4.0,6.0,37,0.00,,,0.00,0.000000,,2013-08-21 13:02:00,
2013-08-21 06:11:00,55.0,29.0,-100.00,SW,234,4.0,6.0,37,0.00,,,0.00,0.000000,,2013-08-21 13:11:00,
2013-08-21 06:42:00,54.0,31.0,-100.00,West,276,4.0,6.0,41,0.00,,,0.00,0.000000,,2013-08-21 13:42:00,
2013-08-21 06:52:00,54.0,31.0,-100.00,West,276,4.0,6.0,41,0.00,,,0.00,0.000000,,2013-08-21 13:52:00,
2013-08-21 07:02:00,54.0,31.0,-100.00,West,276,4.0,6.0,41,0.00,,,0.00,0.000000,,2013-08-21 14:02:00,
2013-08-21 07:11:00,54.0,31.0,-100.00,West,276,4.0,6.0,41,0.00,,,0.00,0.000000,,2013-08-21 14:11:00,
2013-08-21 07:42:00,56.0,33.0,-100.00,WSW,247,3.0,6.0,42,0.00,,,0.00,24.000000,,2013-08-21 14:42:00,
2013-08-21 07:52:00,56.0,33.0,-100.00,WSW,247,3.0,6.0,42,0.00,,,0.00,24.000000,,2013-08-21 14:52:00,
2013-08-21 08:01:00,56.0,33.0,-100.00,WSW,247,3.0,6.0,42,0.00,,,0.00,24.000000,,2013-08-21 15:01:00,
2013-08-21 08:11:00,56.0,33.0,-100.00,WSW,247,3.0,6.0,42,0.00,,,0.00,24.000000,,2013-08-21 15:11:00,
2013-08-21 09:13:00,62.0,40.0,-100.00,NNW,329,3.0,5.0,44,0.00,,,-99.99,112.000000,,2013-08-21 16:13:00,
2013-08-21 09:43:00,64.0,41.0,-100.00,North,356,3.0,7.0,43,0.00,,,0.00,135.000000,,2013-08-21 16:43:00,
2013-08-21 09:53:00,64.0,41.0,-100.00,North,356,3.0,7.0,43,0.00,,,0.00,135.000000,,2013-08-21 16:53:00,
2013-08-21 10:03:00,64.0,41.0,-100.00,North,356,3.0,7.0,43,0.00,,,0.00,135.000000,,2013-08-21 17:03:00,
2013-08-21 10:12:00,64.0,41.0,-100.00,North,356,3.0,7.0,43,0.00,,,0.00,135.000000,,2013-08-21 17:12:00,
2013-08-21 10:43:00,70.0,39.0,-100.00,NNW,347,6.0,12.0,32,0.00,,,0.00,375.000000,,2013-08-21 17:43:00,
2013-08-21 10:53:00,70.0,39.0,-100.00,NNW,347,6.0,12.0,32,0.00,,,0.00,375.000000,,2013-08-21 17:53:00,
2013-08-21 11:02:00,70.0,39.0,-100.00,NNW,347,6.0,12.0,32,0.00,,,0.00,375.000000,,2013-08-21 18:02:00,
2013-08-21 11:12:00,70.0,39.0,-100.00,NNW,347,6.0,12.0,32,0.00,,,0.00,375.000000,,2013-08-21 18:12:00,
2013-08-21 11:42:00,74.0,38.0,-100.00,North,9,6.0,12.0,27,0.00,,,0.00,707.000000,,2013-08-21 18:42:00,
2013-08-21 11:52:00,74.0,38.0,-100.00,North,9,6.0,12.0,27,0.00,,,0.00,707.000000,,2013-08-21 18:52:00,
2013-08-21 12:01:00,74.0,38.0,-100.00,North,9,6.0,12.0,27,0.00,,,0.00,707.000000,,2013-08-21 19:01:00,
2013-08-21 12:11:00,74.0,38.0,-100.00,North,9,6.0,12.0,27,0.00,,,0.00,707.000000,,2013-08-21 19:11:00,
2013-08-21 12:42:00,78.0,36.0,-100.00,NNW,346,7.0,13.0,22,0.00,,,0.00,889.000000,,2013-08-21 19:42:00,
2013-08-21 12:52:00,78.0,36.0,-100.00,NNW,346,7.0,13.0,22,0.00,,,0.00,889.000000,,2013-08-21 19:52:00,
2013-08-21 13:02:00,78.0,36.0,-100.00,NNW,346,7.0,13.0,22,0.00,,,0.00,889.000000,,2013-08-21 20:02:00,
2013-08-21 13:11:00,78.0,36.0,-100.00,NNW,346,7.0,13.0,22,0.00,,,0.00,889.000000,,2013-08-21 20:11:00,
2013-08-21 13:42:00,77.0,35.0,-100.00,NNW,329,9.0,15.0,22,0.00,,,0.00,680.000000,,2013-08-21 20:42:00,
2013-08-21 13:52:00,77.0,35.0,-100.00,NNW,329,9.0,15.0,22,0.00,,,0.00,680.000000,,2013-08-21 20:52:00,
2013-08-21 14:02:00,77.0,35.0,-100.00,NNW,329,9.0,15.0,22,0.00,,,0.00,680.000000,,2013-08-21 21:02:00,
2013-08-21 14:12:00,77.0,35.0,-100.00,NNW,329,9.0,15.0,22,0.00,,,0.00,680.000000,,2013-08-21 21:12:00,
2013-08-21 14:14:00,83.0,35.0,-100.00,NNE,14,8.0,14.0,18,0.00,,,0.00,908.000000,,2013-08-21 21:14:00,
2013-08-21 14:44:00,83.0,35.0,-100.00,NNE,14,8.0,14.0,18,0.00,,,0.00,908.000000,,2013-08-21 21:44:00,
2013-08-21 14:54:00,83.0,35.0,-100.00,NNE,14,8.0,14.0,18,0.00,,,0.00,908.000000,,2013-08-21 21:54:00,
2013-08-21 15:04:00,83.0,35.0,-100.00,NNE,14,8.0,14.0,18,0.00,,,0.00,908.000000,,2013-08-21 22:04:00,
2013-08-21 15:44:00,83.0,31.0,-100.00,NNE,16,5.0,16.0,15,0.00,,,0.00,802.000000,,2013-08-21 22:44:00,
2013-08-21 15:53:00,83.0,31.0,-100.00,NNE,16,5.0,16.0,15,0.00,,,0.00,802.000000,,2013-08-21 22:53:00,
2013-08-21 16:03:00,83.0,31.0,-100.00,NNE,16,5.0,16.0,15,0.00,,,0.00,802.000000,,2013-08-21 23:03:00,
2013-08-21 16:12:00,83.0,31.0,-100.00,NNE,16,5.0,16.0,15,0.00,,,0.00,802.000000,,2013-08-21 23:12:00,
2013-08-21 16:43:00,83.0,32.0,-100.00,North,9,7.0,14.0,16,0.00,,,0.00,632.000000,,2013-08-21 23:43:00,
2013-08-21 16:53:00,83.0,32.0,-100.00,North,9,7.0,14.0,16,0.00,,,0.00,632.000000,,2013-08-21 23:53:00,
2013-08-21 17:02:00,83.0,32.0,-100.00,North,9,7.0,14.0,16,0.00,,,0.00,632.000000,,2013-08-22 00:02:00,
2013-08-21 17:12:00,83.0,32.0,-100.00,North,9,7.0,14.0,16,0.00,,,0.00,632.000000,,2013-08-22 00:12:00,
2013-08-21 17:42:00,83.0,32.0,-100.00,NE,35,6.0,13.0,16,0.00,,,0.00,509.000000,,2013-08-22 00:42:00,
2013-08-21 17:52:00,83.0,32.0,-100.00,NE,35,6.0,13.0,16,0.00,,,0.00,509.000000,,2013-08-22 00:52:00,
2013-08-21 18:02:00,83.0,32.0,-100.00,NE,35,6.0,13.0,16,0.00,,,0.00,509.000000,,2013-08-22 01:02:00,
2013-08-21 18:11:00,83.0,32.0,-100.00,NE,35,6.0,13.0,16,0.00,,,0.00,509.000000,,2013-08-22 01:11:00,
2013-08-21 18:42:00,81.0,32.0,-100.00,NNW,343,7.0,13.0,17,0.00,,,0.00,345.000000,,2013-08-22 01:42:00,
2013-08-21 18:52:00,81.0,32.0,-100.00,NNW,343,7.0,13.0,17,0.00,,,0.00,345.000000,,2013-08-22 01:52:00,
2013-08-21 19:03:00,81.0,32.0,-100.00,NNW,343,7.0,13.0,17,0.00,,,0.00,345.000000,,2013-08-22 02:03:00,
2013-08-21 19:12:00,81.0,32.0,-100.00,NNW,343,7.0,13.0,17,0.00,,,0.00,345.000000,,2013-08-22 02:12:00,
2013-08-21 19:52:00,79.0,32.0,-100.00,North,2,6.0,10.0,18,0.00,,,0.00,174.000000,,2013-08-22 02:52:00,
2013-08-21 20:02:00,79.0,32.0,-100.00,North,2,6.0,10.0,18,0.00,,,0.00,174.000000,,2013-08-22 03:02:00,
2013-08-21 20:12:00,79.0,32.0,-100.00,North,2,6.0,10.0,18,0.00,,,0.00,174.000000,,2013-08-22 03:12:00,
2013-08-21 20:14:00,74.0,33.0,-100.00,NNW,343,5.0,10.0,22,0.00,,,0.00,40.000000,,2013-08-22 03:14:00,
2013-08-21 20:45:00,74.0,33.0,-100.00,NNW,343,5.0,10.0,22,0.00,,,0.00,40.000000,,2013-08-22 03:45:00,
2013-08-21 20:54:00,74.0,33.0,-100.00,NNW,343,5.0,10.0,22,0.00,,,0.00,40.000000,,2013-08-22 03:54:00,
2013-08-21 21:04:00,74.0,33.0,-100.00,NNW,343,5.0,10.0,22,0.00,,,0.00,40.000000,,2013-08-22 04:04:00,
2013-08-21 21:44:00,70.0,34.0,-100.00,NNW,332,6.0,9.0,26,0.00,,,0.00,0.000000,,2013-08-22 04:44:00,
2013-08-21 21:54:00,70.0,34.0,-100.00,NNW,332,6.0,9.0,26,0.00,,,0.00,0.000000,,2013-08-22 04:54:00,
2013-08-21 22:03:00,70.0,34.0,-100.00,NNW,332,6.0,9.0,26,0.00,,,0.00,0.000000,,2013-08-22 05:03:00,
2013-08-21 22:12:00,70.0,34.0,-100.00,NNW,332,6.0,9.0,26,0.00,,,0.00,0.000000,,2013-08-22 05:12:00,
2013-08-21 22:43:00,67.0,35.0,-100.00,West,269,2.0,11.0,30,0.00,,,0.00,0.000000,,2013-08-22 05:43:00,
2013-08-21 22:52:00,67.0,35.0,-100.00,West,269,2.0,11.0,30,0.00,,,0.00,0.000000,,2013-08-22 05:52:00,
2013-08-21 23:02:00,67.0,35.0,-100.00,West,269,2.0,11.0,30,0.00,,,0.00,0.000000,,2013-08-22 06:02:00,
2013-08-21 23:12:00,67.0,35.0,-100.00,West,269,2.0,11.0,30,0.00,,,0.00,0.000000,,2013-08-22 06:12:00,
2013-08-21 23:42:00,64.0,34.0,-100.00,West,273,5.0,8.0,32,0.00,,,0.00,0.000000,,2013-08-22 06:42:00,
2013-08-21 23:52:00,64.0,34.0,-100.00,West,273,5.0,8.0,32,0.00,,,0.00,0.000000,,2013-08-22 06:52:00,